[Iaude] MPEC K147: 2024 KK1 [a=1.11,e=0.09,i=7.7,H=26.1]
    mpec at cfa.harvard.edu 
    mpec at cfa.harvard.edu
       
    Fri May 31 07:45:15 EDT 2024
    
    
  
M.P.E.C. 2024-K147                                 Issued 2024 May 31, 11:43 UT
     The Minor Planet Electronic Circulars contain information on unusual
         minor planets, routine data on comets and natural satellites,
         and occasional editorial announcements.  They are published
    on behalf of Division F of the International Astronomical Union by the
          Minor Planet Center, Smithsonian Astrophysical Observatory,
                          Cambridge, MA 02138, U.S.A.
			  
             Prepared using the Tamkin Foundation Computer Network
                              MPC at CFA.HARVARD.EDU
            URL https://www.minorplanetcenter.net/    ISSN 1523-6714
                                    2024 KK1                                    
Observations:
     K24K01K*1C2024 05 30.20720112 32 17.128+24 10 10.16         20.81GVEK147G96
     K24K01K 1C2024 05 30.21282712 32 16.984+24 08 43.94         21.48GVEK147G96
     K24K01K 1C2024 05 30.21847112 32 16.912+24 07 16.03         20.66GVEK147G96
     K24K01K 1C2024 05 30.22411512 32 16.789+24 05 48.55         20.26GVEK147G96
     K24K01K KC2024 05 30.31606412 32 17.012+23 41 43.55         21.28GVEK147I52
     K24K01K KC2024 05 30.31747912 32 17.056+23 41 21.41         20.70GVEK147I52
     K24K01K KC2024 05 30.31889912 32 17.095+23 40 58.87         21.41GVEK147I52
     K24K01K 1C2024 05 30.99582 12 33 12.39 +20 42 17.6          20.9 VXEK147033
     K24K01K 1C2024 05 30.99690 12 33 12.48 +20 41 59.5          21.1 VXEK147033
     K24K01K 1C2024 05 30.99799 12 33 12.51 +20 41 41.8          22.0 VXEK147033
     K24K01K 1C2024 05 30.99909 12 33 12.57 +20 41 23.7          20.8 VXEK147033
     K24K01K KC2024 05 31.10993912 33 30.12 +20 13 04.1          21.4 GVEK147H21
     K24K01K KC2024 05 31.11278512 33 30.10 +20 12 17.6          21.8 GVEK147H21
     K24K01K KC2024 05 31.11572512 33 30.06 +20 11 29.4          20.5 GVEK147H21
     K24K01K KC2024 05 31.11847512 33 29.97 +20 10 44.2          21.2 GVEK147H21
     K24K01K KC2024 05 31.16346112 33 34.956+19 59 08.27         20.68GVEK147I52
     K24K01K KC2024 05 31.18664512 33 34.369+19 52 47.57         20.97GVEK147I52
     K24K01K KC2024 05 31.18776612 33 34.362+19 52 29.78         20.84GVEK147I52
     K24K01K KC2024 05 31.18888012 33 34.351+19 52 11.50         20.29GVEK147I52
     K24K01K  C2024 05 31.22069512 33 32.943+19 43 15.76         20.1 GVEK147H01
     K24K01K  C2024 05 31.22430212 33 32.914+19 42 16.12         20.7 GVEK147H01
     K24K01K  C2024 05 31.23707912 33 32.829+19 38 43.01         19.9 GVEK147H01
     K24K01K  C2024 05 31.24126312 33 32.822+19 37 33.21         20.7 GVEK147H01
Observer details:
033 Karl Schwarzschild Observatory, Tautenburg.  Observers C. Heogner, F.
    Ludwig, M. Hartmann, B. Stecklum.  Measurer B. Stecklum.  1.34-m f/3
    Schmidt + CCD.
G96 Mt. Lemmon Survey.  Observer T. Beuden.  Measurers T. Beuden, V. F.
    Carvajal, D. Fay, J. B. Fazekas, D. C. Fuls, A. R. Gibbs, A. D. Grauer, H.
    Groeller, J. K. Hogan, R. A. Kowalski, S. M. Larson, G. J. Leonard, D.
    Rankin, R. L. Seaman, F. C. Shelly, K. W. Wierzchos.  1.5-m reflector +
    10K CCD.
H01 Magdalena Ridge Observatory, Socorro.  Observers W. H. Ryan, E. V. Ryan.
    Measurer W. H. Ryan.  2.4-m f/8.9 Ritchey-Chretien + CCD.
H21 Astronomical Research Observatory, Westfield.  Observer R. Holmes.
    Measurers T. Linder, R. Holmes, L. Horn.  0.81-m f/4.0 astrograph + CCD.
I52 Steward Observatory, Mt. Lemmon Station.  Observer V. F. Carvajal.
    Measurers T. Beuden, V. F. Carvajal, D. Fay, J. B. Fazekas, D. C. Fuls, A.
    R. Gibbs, A. D. Grauer, H. Groeller, J. K. Hogan, R. A. Kowalski, S. M.
    Larson, G. J. Leonard, D. Rankin, R. L. Seaman, F. C. Shelly, K. W.
    Wierzchos.  1.0-m prime focus + CCD.
Orbital elements:
2024 KK1                                                 Earth MOID = 0.0127 AU
Epoch 2024 Mar. 31.0 TT = JDT 2460400.5                 Veres                   
M 333.88181              (2000.0)            P               Q                  
n   0.83941725     Peri.  145.00161     -0.78125047     +0.61105053             
a   1.1129717      Node    73.17165     -0.59879864     -0.67591852             
e   0.0903791      Incl.    7.65686     -0.17631757     -0.41200899             
P   1.17           H   26.12          G   0.15           U   7                  
Residuals in seconds of arc
240530 G96  0.1-  0.5-    240530 033  0.3+  0.6+    240531 I52  0.6-  0.5-
240530 G96  0.4-  0.3+    240530 033  0.1-  0.8+    240531 I52  0.3-  0.1+
240530 G96  0.2+  0.1-    240530 033  0.1-  0.9+    240531 I52  0.1-  0.2+
240530 G96  0.0   0.0     240531 H21  0.3+  0.0     240531 H01  0.2-  0.1+
240530 I52  0.1-  0.0     240531 H21 (0.7+  0.0 )   240531 H01  0.1-  0.4+
240530 I52  0.0   0.3+    240531 H21 (0.9+  0.2-)   240531 H01  0.1-  0.0
240530 I52  0.0   0.3+    240531 H21  0.3+  0.4-    240531 H01  0.0   0.0
240530 033  0.2-  0.9+    240531 I52  1.0-  0.2-
Ephemeris:
2024 KK1                 a,e,i = 1.11, 0.09, 8                   q = 1.0124
Date    TT    R. A. (2000) Decl.     Delta      r    Elong.  Phase     V
2024 05 01    12 08 03.2 +70 48 36   0.08899 1.0124    90.6    84.4    23.8
...
2024 05 16    12 17 53.5 +58 49 12   0.05758 1.0153    92.6    84.2    22.9
...
2024 05 24    12 25 21.5 +44 36 21   0.04148 1.0191    97.9    79.8    22.0
...
2024 05 30    12 32 08.3 +25 03 16   0.03210 1.0230   106.0    72.2    21.2
2024 05 31    12 33 24.7 +20 44 27   0.03100 1.0238   107.8    70.5    21.1
2024 06 01    12 34 44.4 +16 07 41   0.03008 1.0245   109.6    68.8    21.0
...
2024 06 07    12 44 16.2 -14 47 52   0.02928 1.0295   119.2    59.4    20.6
...
2024 06 15    13 03 03.3 -46 18 23   0.03976 1.0372   121.7    56.4    21.2
...
2024 06 30    14 05 33.7 -68 43 17   0.07327 1.0547   119.5    57.0    22.6
M. P. C. Staff               (C) Copyright 2024 MPC           M.P.E.C. 2024-K147
    
    
More information about the Iaude
mailing list